SNEZKA Weather Reports


Display with metric or nautical units.
time (UTC)temp
F
wind
direction
speed
MPH
gust
MPH
rain 1hr
in
rain 24hr
in
rain mn
in
humidity
%
barometer
mb
20201026031758 43 190 16.0 0.0 0.00 0.00 0.00 65
20201026021758 43 200 20.0 0.0 0.00 0.00 0.00 75
20201026011757 43 200 24.0 0.0 0.00 0.00 0.00 65
20201026001757 41 210 24.0 0.0 0.00 0.00 0.00 80
20201025231759 41 210 24.0 0.0 0.00 0.00 0.00 86
20201025221755 41 210 31.0 0.0 0.00 0.00 0.00 80
20201025211756 39 210 36.0 0.0 0.00 0.00 0.00 86
20201025201758 39 210 40.0 0.0 0.00 0.00 0.00 93
20201025191758 37 220 40.0 0.0 0.00 0.00 0.00 99
20201025181801 39 220 36.0 47.0 0.00 0.00 0.00 99
20201025171757 39 230 29.0 43.0 0.00 0.00 0.00 93
20201025161756 39 220 33.0 0.0 0.00 0.00 0.00 93
20201025151757 39 220 33.0 0.0 0.00 0.00 0.00 99
20201025141758 39 210 24.0 0.0 0.00 0.00 0.00 99
20201025131757 39 220 22.0 33.0 0.00 0.00 0.00 93
20201025121803 39 210 20.0 0.0 0.00 0.00 0.00 93
20201025111758 39 220 24.0 0.0 0.00 0.00 0.00 93
20201025101757 37 230 20.0 36.0 0.00 0.00 0.00 99
20201025091757 37 220 22.0 33.0 0.00 0.00 0.00 93
20201025081759 37 220 24.0 0.0 0.00 0.00 0.00 93
20201025071757 37 220 20.0 0.0 0.00 0.00 0.00 93
20201025061758 37 220 18.0 0.0 0.00 0.00 0.00 93
20201025051757 37 220 22.0 0.0 0.00 0.00 0.00 99
20201025041803 37 220 22.0 0.0 0.00 0.00 0.00 99